Weather in Kalakan

Russia / Zabaykalsky Krai     55°07′29″N   116°45′55″E
temp.,
°C
wind,
m/s
gust,
m/s
humid.,
%
clouds,
%
prec.,
mm/h
press.,
hPa
HPBL,
m
16 may, sun
sun1600:00+4s22451 0.0 100414
03:00+2s22560 0.0 100413
06:00+1ssw25605 0.0 1003130
09:00+9wnw36393 0.0 1001769
12:00+14w5112299 0.0 9983390
15:00+12wsw71037100 0.0 9972182
18:00+12nnw8133648 0.0 9972303
21:00+6nnw483695 0.0 10031393
17 may, mon
mon1700:00+2wnw26471 0.0 1007257
03:00−2wsw115782 0.0 100810
06:00−2ene005799 0.0 100717
09:00+5s1240100 0.0 1005832
12:00+8wnw2627100 0.0 10012741
15:00+10wnw2528100 0.0 9982529
18:00+10wnw353029 0.2 9972264
21:00+4n4844100 0.2 1000378
18 may, tue
tue1800:00+2nnw41137100 0.0 1003709
03:000wnw235185 0.1 1004108
06:00−3wnw25616 0.0 1006118
09:00+3nnw4526100 0.0 10051441
12:00+5nnw4524100 0.0 10042850
15:00+6nw2422100 0.0 10032748
18:00+6nw4426100 0.1 10032222
21:00+2sw3650100 0.1 1005319
19 may, wed
wed1900:00−2sw22711 0.0 100627
03:00−5sse117959 0.0 100610
06:00−2se1273100 0.0 1005127
09:00+5s234012 0.1 1002974
12:00+9w5720100 0.0 9993177
15:00+11w3818100 0.0 9963322
18:00+11w4720100 0.0 9952956
21:00+7nnw2432100 0.0 99764
20 may, thu
thu2000:00+1nw224969 0.0 100115
03:00−1wnw22626 0.0 100239
06:00−1w236227 0.0 100482
09:00+5nnw69270 0.0 10041622
12:00+8nw351844 0.0 10051921
15:00+10nw3416100 0.0 10052149
18:00+11wnw111752 0.0 10041851
21:00+5w1130100 0.0 100710